Flag for China Weather past 2 weeks in Shenzhen, Guangdong, China

Now
88 °F

Passing clouds.


Feels Like: 105 °F
Forecast: 81 / 91 °F
Wind: 15 mph from South

Location: Shenzhen Airport

Current Time: May 29, 2015 at 12:32:04 PM

Latest Report: May 29, 2015 at 11:00 AM


Visibility: N/A

Pressure: 29.74 "Hg

Humidity: 79%

Dew point: 81 °F

Location of ShenzhenLocation

Historic Weather in Shenzhen — Graph

°F

Shenzhen temperature yesterday

Maximum temperature yesterday: 88 °F (at 11:00 AM)
Minimum temperature yesterday: 82 °F (at 12:00 AM)
Average temperature yesterday: 84 °F

Past Weeks' High & Low Weather Summary

 TemperatureHumidityPressure
High88 °F (May 15, 1:00 PM)100% (May 23, 3:00 PM)29.92 "Hg (May 23, 3:00 PM)
Low73 °F (May 16, 5:00 AM)66% (May 21, 1:00 PM)29.62 "Hg (May 28, 3:00 PM)
Average81 °F86%29.74 "Hg
* Reported May 14 11:00 AM — May 29 11:00 AM, Shenzhen, Weather by CustomWeather, © 2015

Note: Actual official high and low records may vary slightly from our data, if they occured in-between our weather recording intervals... More about our weather records

Advertising

Shenzhen weather history for previous 24 hours

 ConditionsComfort  
Time TempWeatherWind HumidityBarometerVisibility
11:00 AM
Fri, May 29
88 °FPassing clouds.15 mph79%29.74 "HgN/A
10:00 AM86 °FPassing clouds.13 mph84%29.74 "HgN/A
9:00 AM86 °FPassing clouds.13 mph84%29.74 "HgN/A
8:00 AM84 °FScattered clouds.10 mph89%29.71 "HgN/A
7:00 AM84 °FScattered clouds.10 mph89%29.71 "HgN/A
6:00 AM82 °FPassing clouds.10 mph94%29.68 "HgN/A
5:00 AM82 °FPassing clouds.10 mph89%29.68 "HgN/A
4:00 AM82 °FPassing clouds.10 mph94%29.68 "HgN/A
3:00 AM82 °FPassing clouds.10 mph89%29.68 "HgN/A
2:00 AM82 °FPassing clouds.10 mph89%29.68 "HgN/A
1:00 AM82 °FPassing clouds.10 mph89%29.68 "HgN/A
12:00 AM82 °FPassing clouds.13 mph89%29.68 "HgN/A
11:00 PM
Thu, May 28
82 °FPassing clouds.10 mph89%29.71 "HgN/A
10:00 PM84 °FPassing clouds.10 mph89%29.68 "HgN/A
9:00 PM84 °FClear.17 mph89%29.65 "Hg10 mi
8:00 PM84 °FClear.17 mph89%29.65 "Hg10 mi
7:00 PM84 °FSunny.15 mph89%29.62 "Hg10 mi
6:00 PM84 °FSunny.17 mph89%29.62 "Hg10 mi
5:00 PM84 °FSunny.17 mph89%29.62 "Hg10 mi
4:00 PM86 °FSunny.20 mph79%29.62 "Hg10 mi
3:00 PM86 °FPassing clouds.20 mph79%29.62 "HgN/A
2:00 PM88 °FPassing clouds.17 mph79%29.65 "HgN/A
1:00 PM88 °FPassing clouds.15 mph79%29.65 "HgN/A
12:00 PM86 °FPassing clouds.15 mph84%29.68 "HgN/A
Weather by CustomWeather, © 2015

See weather overviewHow to use our weather pages